Location: Oberkirch
(48.5323°N, 8.0787°E)
Time: 09:00:16
(UTC+00:00)

Vanguard 3 - Pass Details

Date: 26 February 2026
Orbit: 507 x 3205 km, 33.4° (Epoch: 6 March)

Event Time Altitude Azimuth Distance (km) Brightness Sun altitude
Rises 17:59:55 0° 265° (W) 5,182 13.7 -9.6°
Reaches altitude 10° 18:06:00 10° 244° (WSW) 3,505 11.5 -10.6°
Maximum altitude 18:09:38 13° 218° (SW) 2,838 10.5 -11.2°
Drops below altitude 10° 18:12:37 10° 191° (S) 2,739 10.0 -11.7°
Sets 18:16:15 0° 163° (SSE) 3,276 10.1 -12.3°
